Rome, GA

1:14 PM EDT on July 25, 2017 (GMT -0400)
Russell

Weather History for KRMG - November, 2014

Change the Weather History Date:

Sunday, November 2, 2014

  Actual Average Record
Temperature  
Mean Temperature 44 °F 55 °F  
Max Temperature 57 °F 68 °F 84 °F (2000)
Min Temperature 30 °F 43 °F 30 °F (2014)
Degree Days  
Heating Degree Days 21 10  
Month to date heating degree days 44 20  
Since 1 July heating degree days 177 197  
Moisture  
Dew Point 27 °F    
Average Humidity 58    
Maximum Humidity 89    
Minimum Humidity 26    
Precipitation  
Precipitation 0.00 in 0.13 in 1.48 in (2004)
Month to date precipitation 0.00 0.26  
Year to date precipitation 38.60 42.95  
Sea Level Pressure  
Sea Level Pressure 30.37 in    
Wind  
Wind Speed 6 mph (North)    
Max Wind Speed 16 mph    
Max Gust Speed 23 mph    
Visibility 10 miles    
Events      
T = Trace of Precipitation, MM = Missing Value Source: NWS Daily Summary

Daily Weather History Graph

Daily Weather History Graph

Search for Another Location

Airport or City:

Trip Planner

Search our weather history database for the weather conditions in past years. The results will help you decide how hot, cold, wet, or windy it might be!

Date:

Astronomy

Nov. 02, 2014 Rise Set
Actual Time 7:01 AM EST 5:46 PM EST
Civil Twilight 6:35 AM EST 6:12 PM EST
Nautical Twilight 6:05 AM EST 6:42 PM EST
Astronomical Twilight 5:36 AM EST 7:11 PM EST
Moon 3:06 PM EST (11/2) 2:16 AM EST (11/2)
Length of Visible Light 11h 36m
Length of Day
10h 44m
Waxing Gibbous, 78% of the Moon is Illuminated
Nov 2
Waxing Gibbous
Nov 6
Full
Nov 14
Last Quarter
Nov 22
New
Nov 29
First Quarter

Hourly Weather History & Observations

Time (EST) Temp. Windchill Dew Point Humidity Pressure Visibility Wind Dir Wind Speed Gust Speed Precip Events Conditions
12:53 AM 36.0 °F 31.1 °F 30.9 °F 82% 30.30 in 10.0 mi NW 5.8 mph - N/A   Clear
1:53 AM 34.0 °F 31.0 °F 30.0 °F 85% 30.30 in 10.0 mi WNW 3.5 mph - N/A   Clear
1:53 AM 34.0 °F 29.8 °F 30.0 °F 85% 30.31 in 10.0 mi NW 4.6 mph - N/A   Clear
2:53 AM 34.0 °F 28.8 °F 28.9 °F 82% 30.33 in 10.0 mi NNW 5.8 mph - N/A   Clear
3:53 AM 32.0 °F - 28.0 °F 85% 30.33 in 10.0 mi Calm Calm - N/A   Clear
4:53 AM 30.0 °F 26.5 °F 26.1 °F 85% 30.35 in 10.0 mi NNE 3.5 mph - N/A   Clear
5:53 AM 32.0 °F 26.4 °F 27.0 °F 82% 30.36 in 10.0 mi NNW 5.8 mph - N/A   Clear
6:53 AM 32.0 °F 25.6 °F 27.0 °F 82% 30.38 in 10.0 mi NNW 6.9 mph - N/A   Clear
7:53 AM 35.1 °F 30.1 °F 27.0 °F 72% 30.41 in 10.0 mi NNW 5.8 mph - N/A   Clear
8:53 AM 39.9 °F 35.8 °F 28.0 °F 63% 30.43 in 10.0 mi North 5.8 mph - N/A   Clear
9:53 AM 43.0 °F 36.4 °F 26.1 °F 51% 30.43 in 10.0 mi North 12.7 mph - N/A   Clear
10:53 AM 46.9 °F - 25.0 °F 42% 30.43 in 10.0 mi NNE 12.7 mph - N/A   Clear
11:53 AM 50.0 °F - 24.1 °F 36% 30.41 in 10.0 mi North 11.5 mph - N/A   Clear
12:53 PM 52.0 °F - 24.1 °F 34% 30.39 in 10.0 mi NNE 10.4 mph - N/A   Clear
1:53 PM 55.0 °F - 23.0 °F 29% 30.37 in 10.0 mi North 13.8 mph 18.4 mph N/A   Clear
2:53 PM 55.9 °F - 21.9 °F 27% 30.35 in 10.0 mi North 12.7 mph - N/A   Clear
3:53 PM 55.9 °F - 21.0 °F 26% 30.35 in 10.0 mi North 10.4 mph - N/A   Clear
4:53 PM 54.0 °F - 21.9 °F 29% 30.36 in 10.0 mi North 10.4 mph - N/A   Clear
5:53 PM 48.2 °F - 24.8 °F 40% 30.36 in 10.0 mi NNE 4.6 mph - N/A   Clear
6:53 PM 44.1 °F - 28.0 °F 53% 30.37 in 10.0 mi Calm Calm - N/A   Clear
7:53 PM 37.9 °F 35.5 °F 28.0 °F 68% 30.37 in 10.0 mi WNW 3.5 mph - N/A   Clear
8:53 PM 34.0 °F - 28.9 °F 82% 30.38 in 10.0 mi Calm Calm - N/A   Clear
9:53 PM 35.1 °F 32.2 °F 28.9 °F 78% 30.39 in 10.0 mi NE 3.5 mph - N/A   Clear
10:53 PM 32.0 °F - 28.0 °F 85% 30.39 in 10.0 mi Calm Calm - N/A   Clear